カタログに戻る

ONEWEB-0668

運用中通信PO
NORAD 56711·PAYLOAD·🇬🇧 United Kingdom

打ち上げ May 20, 2023 から Vandenberg Space Force Base

Loading…

次のパス (今後24時間)

TLE

最新Source: CelesTrak SupGP

元期: Sep 14, 2026, 21:14 UTC

1 56711C 23068B   26257.88490001 -.00000180  00000+0 -47199-3 0  2571
2 56711  87.9147 210.9625 0001702  92.0419 303.8466 13.16594005    13

AllMySatでONEWEB-0668をリアルタイム追跡

Download on the App Store